Regional Weather Roundup
Issued by NWS Grand Forks, ND

Home | Current Version | Previous Version | Graphics & Text | Print | Product List | Glossary On
Versions: 1 2 3 4 5 6 7 8 9 10 11 12 13 14 15 16 17 18 19 20 21 22 23 24 25 26 27 28 29 30 31 32 33 34 35 36 37 38 39 40 41 42 43 44 45 46 47 48 49 50
000
ASUS43 KFGF 241410
RWRFGF
PRAIRIE TO PINES  WEATHER ROUNDUP
NATIONAL WEATHER SERVICE EASTERN NORTH DAKOTA/GRAND FORKS ND
900 AM CDT THU APR 24 2014

 **SATELLITE DATA USED TO AUGMENT SKY COVER AT AUTOMATED STATIONS**
 *****  WEATHER ACROSS EASTERN NORTH DAKOTA  *****

CITY           SKY/WX    TMP DP  RH WIND       PRES   REMARKS
GRAND FORKS    CLOUDY    40  39  97 SE10      29.76F
GRAND FRKS AFB CLOUDY    40  40 100 S8        29.76F
GRAND FRKS NWS   N/A     39 N/A N/A SE7         N/A
DEVILS LAKE    CLOUDY    39  36  87 SE9       29.72S VSB 3/4
FARGO          LGT RAIN  42  40  92 SE5       29.76S FOG
WAHPETON ARPT  CLOUDY    39  36  87 E6        29.76F
$$

 ***** WEATHER ACROSS CENTRAL AND WESTERN NORTH DAKOTA  *****

CITY           SKY/WX    TMP DP  RH WIND       PRES   REMARKS
BISMARCK       SUNNY     44  29  55 W6        29.76R
MINOT          SUNNY     45  31  58 SW17      29.66S
JAMESTOWN      FOG       37  37 100 S5        29.72S VSB<1/4
MINOT AFB      SUNNY     43  36  76 W14       29.67R
GARRISON         N/A     40  33  76 W6        29.71R
WILLISTON      SUNNY     43  28  55 W20G26    29.70S
DICKINSON      SUNNY     46  26  45 W18       29.74S
HETTINGER      MOSUNNY   44  27  51 W16       29.81R
$$

 *****  OTHER AIRPORT OBSERVATIONS IN OUR AREA  *****

CITY           SKY/WX    TMP DP  RH WIND       PRES   REMARKS
WALHALLA       CLOUDY    37  37 100 SE12      29.76S FOG
GRAFTON AIRPOR CLOUDY    37  37 100 SE12      29.77S FOG
VALLEY CITY AR PTSUNNY   39  39 100 S7        29.73F FOG
CANDO          FOG       37  37 100 S10       29.72R VSB 1/4
CAVALIER APRT  FOG       37  37 100 SE10      29.77S VSB 1
GWINNER        MOSUNNY   41  41 100 S5        29.75F
SHEYENNE NWR     N/A     41  41 100 CALM      29.95
ROLLA          FOG       36  36 100 S9        29.70R VSB<1/4
 ***** THE ABOVE OBSERVATIONS ARE NON NWS ARE NOT QUALITY
       CONTROLLED AND MAY MIS-REPORT RAIN FOR SNOW...
$$

  *****  WEATHER ACROSS NORTHERN MINNESOTA  *****

CITY           SKY/WX    TMP DP  RH WIND       PRES   REMARKS
FLAG ISLAND    LGT RAIN  37  36  93 E10       29.85F
WARROAD        LGT SNOW  37  34  87 SE9       29.84F
ROSEAU         CLOUDY    37  34  87 SE8       29.82F FOG
HALLOCK        DRIZZLE   39  37  93 SE12      29.78S
THF RVR FALLS  CLOUDY    37  34  87 E9        29.80S
BAUDETTE       CLOUDY    38  36  92 SE8       29.85F FOG
WASKISH        LGT RAIN  37  37 100 E9        29.82F
CROOKSTON      MIX PCPN  39  37  93 SE6       29.78F
$$
  *****  WEATHER ACROSS CENTRAL AND WEST MINNESOTA  *****

CITY           SKY/WX    TMP DP  RH WIND       PRES   REMARKS
FOSSTON        DRIZZLE   36  36 100 E9        29.79S
BEMIDJI        CLOUDY    36  35  97 E12       29.79F FOG
PARK RAPIDS    CLOUDY    38  38 100 SE9       29.77F FOG
ELBOW LAKE     RAIN      40  39  99 SE5       29.76R
WADENA         DRIZZLE   39  37  93 E10       29.76F
DETROIT LAKES  DRIZZLE   37  37 100 SE8       29.77F
MOORHEAD       LGT RAIN  41  41 100 S5        29.77S
FERGUS FALLS   DRIZZLE   41  37  87 SE6       29.75R
MORRIS MN      LGT RAIN  41  39  93 E3        29.74S
STAPLES        DRIZZLE   39  39 100 E6        29.78S
$$
  *****  WEATHER ELSEWHERE ACROSS MINNESOTA  *****

CITY           SKY/WX    TMP DP  RH WIND       PRES   REMARKS
DULUTH         DRIZZLE   35  33  92 E16       29.90F FOG
INTRNTL FALLS  LGT RAIN  39  36  89 SE10      29.88F
ELY            CLOUDY    37  34  87 SE13G20   29.93F
CLOQUET        DRIZZLE   36  34  93 E9G16     29.88F
WHEATON        MIX PCPN  43  41  93 CALM      29.78S
BRAINERD       CLOUDY    43  37  79 E12G17    29.80S HAZE
HIBBING        LGT RAIN  37  34  89 SE15      29.87F
ALEXANDRIA     LGT RAIN  40  39  97 SE10      29.75F FOG
SAINT CLOUD    CLOUDY    42  38  85 E8G17     29.78S FOG
MINNEAPOLIS    RAIN      40  39  97 E15       29.78F FOG
$$

  *****  WEATHER ACROSS SOUTH DAKOTA  *****

CITY           SKY/WX    TMP DP  RH WIND       PRES   REMARKS
SIOUX FALLS    LGT RAIN  46  45  96 NW9       29.72R FOG
BROOKINGS      NOT AVBL
WATERTOWN      LGT RAIN  40  39  97 NW6       29.75R FOG
HURON          CLOUDY    45  41  86 NW10      29.76R
SISSETON         N/A     40  40 100 CALM      29.76R
ABERDEEN       PTSUNNY   40  39  97 W5        29.76R
MITCHELL       CLOUDY    47  43  86 NW9       29.77R
PIERRE         SUNNY     50  29  44 NW17      29.79R
MOBRIDGE       SUNNY     45  30  55 N13       29.75S
RAPID CITY     SUNNY     48  22  35 NW7       29.86R
$$

  *****  SOME WEATHER IN NEARBY STATES *****

CITY           SKY/WX    TMP DP  RH WIND       PRES   REMARKS
GLASGOW MT     MOSUNNY   39  29  67 W10       29.77R
GREAT FALLS MT PTSUNNY   41  30  65 SW9       29.79S
CHEYENNE WY    SUNNY     39  15  37 W23G30    29.99R
SCOTTSBLUFF NE SUNNY     41  21  44 NW9G20    29.97R
OMAHA NE       CLOUDY    50  46  86 W6        29.66R
DES MOINES IA  TSTM      52  46  80 SW12      29.70R
DAVENPORT IA   PTSUNNY   51  39  63 SE24G30   29.81F
CHICAGO IL     CLOUDY    50  36  58 SE15      29.97F
EAU CLAIRE WI  LGT RAIN  39  37  92 E15       29.84F
LA CROSSE WI   RAIN      41  38  89 SE12G21   29.86F FOG
$$

  *****  SOME NATIONAL WEATHER *****

CITY           SKY/WX    TMP DP  RH WIND       PRES   REMARKS
LA GUARDIA NY  SUNNY     48  16  27 NW25G36   29.91F
RALEIGH NC     PTSUNNY   57  32  38 SE5       30.15S
ATLANTA GA     MOSUNNY   60  40  47 E12G18    30.06R
NEW ORLEANS LA MOSUNNY   71  68  90 VRB3      29.97R
OKLAHOMA CITY  CLOUDY    69  62  78 S10       29.68R
ALBUQUERQUE NM MOSUNNY   49  12  22 N8        30.14R
SALT LAKE CITY PTSUNNY   44  25  47 S14       30.05S
LOS ANGELES CA PTCLDY    57  50  77 E5        29.97R
BOISE ID       LGT RAIN  44  39  82 SE8       29.94R
SEATTLE WA     CLOUDY    50  45  81 SW15G22   29.68R
$$

*** WEATHER ACROSS MANITOBA...SASKATCHEWAN AND ONTARIO ***
                ***ONTARIO***

CITY           SKY/WX    TMP DP  RH WIND       PRES   REMARKS
GERALDTON      CLOUDY    39  25  56 SW6       30.11F
THUNDER BAY    CLOUDY    37  28  70 E9        30.09S
SIOUX LOOKOUT  CLOUDY    41  21  45 SE6       29.99F
TORONTO        PTSUNNY   46  16  29 N15       30.16S
BIG TROUT LK   NOT AVBL
PICKLE LAKE    PTSUNNY   41  23  48 S7        30.03S
DRYDEN         NOT AVBL
KENORA         DRIZZLE   37  36  93 SE12      29.88F
$$
                *** MANITOBA***

CITY           SKY/WX    TMP DP  RH WIND       PRES   REMARKS
BRANDON        FOG       37  37 100 E8        29.70F VSB 1/4
DAUPHIN        LGT RAIN  37  36  93 SE16G22   29.73S
ISLAND LAKE    PTSUNNY   27  23  86 NE12G17   30.12R WCI  16
PILOT MOUND      N/A     37  37 100 SE15        N/A
THE PAS        NOT AVBL
THOMPSON       CLOUDY    19  16  86 E20       30.21R WCI   4
WINNIPEG       LGT RAIN  39  37  93 SE14      29.80F
LYNN LAKE      CLOUDY    19  14  79 E17G24    30.17R WCI   4
CHURCHILL      LGT SNOW  18  14  86 E7        30.45R WCI   8
GILLAM         FLURRIES  18  16  93 NE12      30.33  WCI   5
$$
                ***SASKATCHEWAN***

CITY           SKY/WX    TMP DP  RH WIND       PRES   REMARKS
ESTEVAN        NOT AVBL
KINDERSLEY     CLOUDY    36  32  87 W17G25    29.63R
LLOYDMINSTER   LGT SNOW  32  32 100 NE5       29.61R FOG
PRINCE ALBERT  LGT SNOW  34  32  93 E18G28    29.65S WCI  23
REGINA         PTSUNNY   41  37  87 W13       29.65S
YORKTON        CLOUDY    37  36  93 SE9       29.64R
N. BATTLEFORD  LGT RAIN  34  34 100 E8        29.61R
LA RONGE       CLOUDY    30  23  74 E21G29    29.90R WCI  17
SASKATOON      CLOUDY    39  37  93 SW10      29.57R
SWIFT CURRENT  NOT AVBL
$$
NOTE: THESE ARE AUTOMATED STATIONS WITH LIMITED QUALITY CONTROL
      "FAIR" INDICATES FEW OR NO CLOUDS BELOW 12,000 FEET WITH NO
      SIGNIFICANT WEATHER AND/OR OBSTRUCTIONS TO VISIBILITY.
      SKY/WX - SKY CONDITION AND SIGNIFICANT WEATHER.
      TMP - AIR TEMPERATURE.    DP   - DEWPOINT TEMPERATURE.
      RH  - RELATIVE HUMIDITY.  PRES - PRESSURE.
      HX  - HEAT INDEX.         WCI  - WIND CHILL INDEX.
$



USA.gov is the U.S. government's official web portal to all federal, state and local government web resources and services.